カタログに戻る

PSLV DEB

運用中PO
NORAD 27582·DEBRIS·🇮🇳 India

打ち上げ Oct 22, 2001 から Satish Dhawan Space Centre

Loading…

次のパス (今後24時間)

TLE

最新Source: Space-Track

元期: Sep 11, 2026, 11:03 UTC

1 27582U 01049NA  26254.46054764  .00006637  00000-0  39034-3 0  9997
2 27582  98.2985 333.9027 0025742  87.9166 272.5009 15.11768871305942

AllMySatでPSLV DEBをリアルタイム追跡

Download on the App Store